Weather History for Kirksville, MO

Change the Weather History Date:

Sunday, April 21, 2013

  Actual Average Record
Temperature  
Mean Temperature 54 °F 54 °F  
Max Temperature 68 °F 65 °F 88 °F (1980)
Min Temperature 40 °F 43 °F 26 °F (1966)
Degree Days  
Heating Degree Days 11 12  
Month to date heating degree days 372 312  
Since 1 July heating degree days 5734 5599  
Cooling Degree Days 0 0  
Month to date cooling degree days 3 0  
Year to date cooling degree days 3 0  
Growing Degree Days 2 (Base 50)    
Moisture  
Dew Point 38 °F    
Average Humidity 58    
Maximum Humidity 76    
Minimum Humidity 40    
Precipitation  
Precipitation 0.00 in 0.16 in 1.60 in (1932)
Month to date precipitation 6.49 2.36  
Year to date precipitation 15.28 7.71  
Sea Level Pressure  
Sea Level Pressure 30.26 in    
Wind  
Wind Speed 14 mph (SSE)    
Max Wind Speed 24 mph    
Max Gust Speed 28 mph    
Visibility 10 miles    
Events      
T = Trace of Precipitation, MM = Missing Value Source: NWS Daily Summary

Daily Weather History Graph

Daily Weather History Graph

Search for Another Location

Airport:

Trip Planner

Search our weather history database for the weather conditions in past years. The results will help you decide how hot, cold, wet, or windy it might be!

Date:

Astronomy

Apr. 21, 2013 Rise Set
Actual Time 6:23 AM CDT 7:55 PM CDT
Civil Twilight 5:54 AM CDT 8:23 PM CDT
Nautical Twilight 5:20 AM CDT 8:58 PM CDT
Astronomical Twilight 4:43 AM CDT 9:34 PM CDT
Moon 3:40 PM CDT (4/21) 3:45 AM CDT (4/21)
Length of Visible Light 14h 29m
Length of Day
13h 32m
Waxing Gibbous, 80% of the Moon is Illuminated
Apr 21
Waxing Gibbous
Apr 25
Full
May 2
Last Quarter
May 9
New
May 17
First Quarter

Hourly Weather History & Observations

Time (CDT) Temp. Windchill Dew Point Humidity Pressure Visibility Wind Dir Wind Speed Gust Speed Precip Events Conditions
12:55 AM 41.0 °F 35.2 °F 30.9 °F 67% 30.31 in 10.0 mi ESE 9.2 mph - N/A   Clear
1:55 AM 39.9 °F 33.4 °F 32.0 °F 73% 30.30 in 10.0 mi ESE 10.4 mph - N/A   Scattered Clouds
2:55 AM 41.0 °F 33.9 °F 33.1 °F 73% 30.29 in 10.0 mi SE 12.7 mph - N/A   Partly Cloudy
3:55 AM 41.0 °F 34.3 °F 33.1 °F 73% 30.29 in 10.0 mi SE 11.5 mph - N/A   Clear
4:55 AM 41.0 °F 33.9 °F 33.1 °F 73% 30.29 in 10.0 mi SE 12.7 mph - N/A   Scattered Clouds
5:55 AM 41.0 °F 33.9 °F 33.1 °F 73% 30.30 in 10.0 mi SE 12.7 mph 20.7 mph N/A   Mostly Cloudy
6:55 AM 41.0 °F 33.5 °F 33.1 °F 73% 30.32 in 10.0 mi SE 13.8 mph - N/A   Partly Cloudy
7:55 AM 43.0 °F 35.4 °F 35.1 °F 74% 30.33 in 10.0 mi SE 16.1 mph - N/A   Mostly Cloudy
8:55 AM 48.0 °F - 36.0 °F 63% 30.34 in 10.0 mi SSE 19.6 mph 23.0 mph N/A   Scattered Clouds
9:55 AM 51.1 °F - 37.9 °F 61% 30.34 in 10.0 mi SSE 17.3 mph - N/A   Scattered Clouds
10:55 AM 53.1 °F - 39.0 °F 59% 30.33 in 10.0 mi SSE 15.0 mph - N/A   Mostly Cloudy
11:55 AM 55.9 °F - 42.1 °F 60% 30.31 in 10.0 mi South 11.5 mph - N/A   Mostly Cloudy
12:55 PM 62.1 °F - 42.1 °F 48% 30.28 in 10.0 mi SSE 10.4 mph - N/A   Clear
1:55 PM 64.9 °F - 42.1 °F 43% 30.25 in 10.0 mi South 13.8 mph 24.2 mph N/A   Clear
2:55 PM 66.9 °F - 41.0 °F 39% 30.22 in 10.0 mi SSW 15.0 mph 24.2 mph N/A   Clear
3:55 PM 66.9 °F - 42.1 °F 40% 30.19 in 10.0 mi South 16.1 mph 25.3 mph N/A   Scattered Clouds
4:55 PM 64.9 °F - 41.0 °F 42% 30.19 in 10.0 mi SSE 23.0 mph 27.6 mph N/A   Partly Cloudy
5:55 PM 64.0 °F - 39.9 °F 41% 30.18 in 10.0 mi SSE 19.6 mph - N/A   Clear
6:55 PM 61.0 °F - 43.0 °F 52% 30.18 in 10.0 mi SSE 15.0 mph - N/A   Mostly Cloudy
7:55 PM 57.0 °F - 43.0 °F 59% 30.19 in 10.0 mi SE 11.5 mph - N/A   Mostly Cloudy
8:55 PM 54.0 °F - 42.1 °F 64% 30.20 in 10.0 mi SE 10.4 mph - N/A   Scattered Clouds
9:55 PM 52.0 °F - 42.1 °F 69% 30.22 in 10.0 mi SE 10.4 mph - N/A   Clear
10:55 PM 52.0 °F - 41.0 °F 66% 30.22 in 10.0 mi SSE 13.8 mph - N/A   Scattered Clouds
11:55 PM 52.0 °F - 41.0 °F 66% 30.21 in 10.0 mi SSE 16.1 mph - N/A   Overcast